Location: Stilling
(56.0622°N, 9.9882°E)
Time: 13:16:43
(UTC+00:00)

CREW DRAGON DEMO-1 DEB - Pass Details

Date: 13 July 2020
Orbit: 368 x 372 km, 51.6° (Epoch: 06 August)

Event Time Altitude Azimuth Distance (km) Brightness Sun altitude
Rises 21:52:43 0° 259° (W) 2,227 6.9 -9.8°
Reaches altitude 10° 21:54:51 10° 250° (WSW) 1,375 5.7 -9.9°
Maximum altitude 21:57:42 35° 183° (S) 621 3.4 -10.1°
Drops below altitude 10° 22:00:32 10° 115° (ESE) 1,371 5.2 -10.2°
Enters shadow 22:00:53 - 113° (ESE) 1,505 5.5 -10.2°
